1536282000.27,33745,17.75,73670.3,-1.15,-14.51,-12.47,0,*52
1536282001.52,33746,17.75,73668.3,-1.15,-14.23,-12.35,0,*51
1536282002.75,33747,17.75,73668.0,-1.17,-14.43,-12.43,0,*55
1536282004.01,33748,17.75,73668.3,-1.17,-14.47,-12.53,0,*5F
1536282005.25,33749,17.75,73666.8,-1.15,-14.61,-12.53,0,*58
1536282006.48,33750,17.75,73664.5,-1.15,-14.61,-12.53,0,*50
1536282007.75,33751,17.75,73668.8,-1.15,-14.55,-12.53,0,*56
1536282009.0,33752,17.75,73670.8,-1.17,-14.55,-12.65,0,*52
1536282010.25,33753,17.75,73666.8,-1.17,-14.55,-12.65,0,*53
1536282011.49,33754,17.75,73666.3,-1.15,-14.37,-12.35,0,*57
1536282012.72,33755,17.75,73668.0,-1.17,-14.43,-12.39,0,*5B
1536282013.97,33756,17.75,73670.3,-1.15,-14.23,-12.35,0,*50
1536282015.22,33757,17.75,73670.3,-1.15,-14.23,-12.35,0,*51
1536282016.48,33758,17.75,73668.8,-1.13,-14.33,-12.35,0,*59
1536282017.69,33759,17.75,73670.5,-1.15,-14.33,-12.39,0,*52
1536282018.95,33760,17.75,73668.0,-1.13,-14.61,-12.53,0,*55
1536282020.21,33761,17.75,73668.5,-1.15,-14.75,-12.75,0,*53
1536282021.45,33762,17.75,73670.5,-1.15,-14.65,-12.75,0,*51
1536282022.68,33763,17.75,73668.8,-1.15,-14.65,-12.65,0,*51
1536282023.91,33764,17.75,73668.0,-1.15,-14.65,-12.65,0,*56
1536282025.17,33765,17.75,73670.8,-1.15,-14.51,-12.61,0,*54
1536282026.44,33766,17.75,73668.5,-1.15,-14.51,-12.53,0,*56
1536282027.69,33767,17.75,73670.5,-1.15,-14.47,-12.47,0,*55
1536282028.96,33768,17.75,73668.5,-1.15,-14.47,-12.35,0,*5F
1536282030.24,33769,17.75,73670.0,-1.15,-14.47,-12.53,0,*5E
1536282031.47,33770,17.75,73666.8,-1.15,-14.61,-12.53,0,*52
1536282032.71,33771,17.75,73668.0,-1.15,-14.61,-12.53,0,*53
1536282033.95,33772,17.75,73668.5,-1.15,-14.61,-12.53,0,*50
1536282035.19,33773,17.75,73666.8,-1.15,-14.51,-12.47,0,*57
1536282036.44,33774,17.69,73664.8,-1.15,-14.47,-12.39,0,*5E
1536282037.69,33775,17.75,73668.0,-1.15,-14.47,-12.39,0,*5F
1536282038.95,33776,17.75,73668.0,-1.13,-14.47,-12.47,0,*53
1536282040.22,33777,17.75,73668.0,-1.13,-14.51,-12.47,0,*55
1536282041.47,33778,17.69,73664.8,-1.13,-14.65,-12.65,0,*5D
1536282042.73,33779,17.69,73664.5,-1.13,-14.79,-12.89,0,*53
1536282043.99,33780,17.75,73668.5,-1.13,-14.61,-12.61,0,*5A
1536282045.25,33781,17.75,73670.0,-1.13,-14.61,-12.53,0,*5A
1536282046.48,33782,17.75,73668.5,-1.11,-14.61,-12.61,0,*5A
1536282047.77,33783,17.75,73666.8,-1.13,-14.79,-12.79,0,*59
1536282048.99,33784,17.69,73664.3,-1.11,-14.69,-12.79,0,*5D
1536282050.28,33785,17.75,73668.0,-1.13,-14.75,-12.75,0,*5F
1536282051.54,33786,17.75,73668.0,-1.13,-14.65,-12.75,0,*5D
1536282052.82,33787,17.75,73670.0,-1.13,-14.75,-12.75,0,*5D
1536282054.11,33788,17.75,73668.5,-1.13,-14.75,-12.75,0,*52
1536282055.37,33789,17.75,73668.5,-1.13,-14.65,-12.75,0,*52
1536282056.63,33790,17.75,73672.0,-1.11,-14.75,-12.79,0,*55
1536282057.86,33791,17.75,73668.8,-1.15,-14.65,-12.61,0,*58
1536282059.08,33792,17.75,73670.3,-1.11,-14.69,-12.57,0,*56
1536282060.37,33793,17.75,73668.8,-1.13,-14.75,-12.79,0,*54
1536282061.63,33794,17.75,73670.0,-1.13,-14.79,-12.89,0,*50
1536282062.91,33795,17.75,73668.8,-1.13,-14.79,-12.75,0,*52
1536282064.18,33796,17.75,73670.3,-1.15,-14.79,-12.79,0,*5B
1536282065.44,33797,17.69,73664.8,-1.15,-14.79,-12.79,0,*5A
1536282066.7,33798,17.75,73668.0,-1.15,-14.75,-12.75,0,*55
1536282067.96,33799,17.69,73664.0,-1.15,-14.79,-12.79,0,*54
1536282069.23,33800,17.75,73668.5,-1.15,-14.75,-12.75,0,*5B
1536282070.51,33801,17.75,73668.0,-1.13,-14.79,-12.79,0,*5C
1536282071.8,33802,17.75,73668.8,-1.13,-14.75,-12.79,0,*53
1536282073.06,33803,17.75,73668.3,-1.13,-14.83,-12.89,0,*54
1536282074.32,33804,17.75,73670.8,-1.13,-14.97,-12.93,0,*5D
1536282075.55,33805,17.75,73668.0,-1.11,-14.79,-12.89,0,*55
1536282076.81,33806,17.75,73670.3,-1.13,-14.83,-12.89,0,*51
1536282078.11,33807,17.75,73670.3,-1.13,-14.83,-12.79,0,*5F
1536282079.34,33808,17.75,73670.3,-1.15,-14.79,-12.89,0,*5C
1536282080.58,33809,17.75,73670.8,-1.15,-14.83,-12.93,0,*53
1536282081.85,33810,17.75,73672.0,-1.15,-14.79,-12.79,0,*5A
1536282083.12,33811,17.69,73666.5,-1.13,-14.93,-13.01,0,*57
1536282084.41,33812,17.75,73668.5,-1.13,-14.75,-12.79,0,*52
1536282085.63,33813,17.75,73670.5,-1.15,-14.65,-12.65,0,*59
1536282086.87,33814,17.69,73666.5,-1.15,-14.93,-12.93,0,*5E
1536282088.1,33815,17.75,73670.3,-1.15,-14.79,-12.89,0,*50
1536282089.37,33816,17.75,73670.3,-1.13,-14.83,-12.89,0,*50
1536282090.63,33817,17.75,73668.0,-1.13,-14.83,-12.93,0,*5A
1536282091.9,33818,17.75,73668.3,-1.13,-14.83,-12.89,0,*5E
1536282093.16,33819,17.75,73670.3,-1.13,-14.93,-12.89,0,*5E
1536282094.39,33820,17.69,73670.0,-1.11,-14.93,-12.89,0,*56
1536282095.62,33821,17.75,73672.3,-1.15,-14.93,-12.89,0,*53
1536282096.82,33822,17.75,73670.3,-1.15,-15.07,-13.07,0,*5B
1536282098.06,33823,17.75,73670.8,-1.15,-14.79,-12.89,0,*55
1536282099.3,33824,17.69,73666.8,-1.15,-14.83,-12.89,0,*57
1536282100.53,33825,17.75,73670.0,-1.15,-14.93,-12.89,0,*57
1536282101.78,33826,17.75,73668.5,-1.15,-14.83,-12.89,0,*55
1536282103.01,33827,17.69,73670.5,-1.15,-14.79,-12.89,0,*51
1536282104.21,33828,17.75,73668.0,-1.17,-14.89,-12.93,0,*58
1536282105.47,33829,17.75,73674.3,-1.13,-15.07,-13.01,0,*50
1536282106.7,33830,17.75,73668.8,-1.15,-14.79,-12.89,0,*57
1536282107.93,33831,17.75,73670.5,-1.17,-14.83,-12.93,0,*5A
1536282109.16,33832,17.69,73670.0,-1.15,-14.65,-12.65,0,*5A
1536282110.42,33833,17.75,73668.8,-1.15,-14.75,-12.61,0,*5E
1536282111.66,33834,17.75,73670.8,-1.15,-14.83,-12.93,0,*5D
1536282112.93,33835,17.69,73668.8,-1.13,-14.83,-12.89,0,*51
1536282114.19,33836,17.69,73668.0,-1.13,-14.65,-12.75,0,*59
1536282115.47,33837,17.69,73668.0,-1.13,-14.75,-12.75,0,*59
1536282116.76,33838,17.75,73670.0,-1.13,-14.83,-12.79,0,*53
1536282118.03,33839,17.69,73668.0,-1.15,-14.79,-12.79,0,*51
1536282119.28,33840,17.69,73670.8,-1.17,-14.83,-12.83,0,*5D
1536282120.54,33841,17.75,73670.0,-1.15,-14.79,-12.75,0,*52
1536282121.8,33842,17.75,73668.8,-1.13,-14.93,-12.93,0,*5B
1536282123.03,33843,17.75,73668.8,-1.13,-15.07,-13.07,0,*5A
1536282124.28,33844,17.75,73670.8,-1.13,-14.93,-12.89,0,*56
1536282125.5,33845,17.69,73666.3,-1.15,-14.89,-12.97,0,*55
1536282126.73,33846,17.75,73672.5,-1.13,-15.07,-12.93,0,*53
1536282127.98,33847,17.69,73670.0,-1.13,-14.93,-12.89,0,*55
1536282129.26,33848,17.75,73670.3,-1.13,-14.93,-13.01,0,*5B
1536282130.53,33849,17.75,73670.8,-1.13,-14.97,-13.01,0,*5E
1536282131.81,33850,17.69,73670.0,-1.13,-14.93,-13.01,0,*52
1536282133.07,33851,17.75,73668.3,-1.13,-14.83,-12.89,0,*53
1536282134.3,33852,17.69,73668.0,-1.15,-14.97,-12.93,0,*58
1536282135.53,33853,17.75,73670.8,-1.13,-15.07,-13.07,0,*5B
1536282136.8,33854,17.69,73670.5,-1.13,-14.97,-13.01,0,*52
1536282138.04,33855,17.75,73672.0,-1.15,-14.93,-12.93,0,*5B
1536282139.33,33856,17.69,73668.8,-1.13,-14.83,-12.79,0,*5B
1536282140.61,33857,17.69,73668.3,-1.13,-14.75,-12.75,0,*5F
1536282141.87,33858,17.69,73668.3,-1.13,-14.93,-12.93,0,*50
1536282143.1,33859,17.69,73668.5,-1.15,-14.93,-12.93,0,*57
1536282144.35,33860,17.75,73670.0,-1.15,-14.93,-13.01,0,*57
1536282145.61,33861,17.75,73672.5,-1.15,-14.93,-12.79,0,*58
1536282146.9,33862,17.69,73668.8,-1.13,-14.83,-12.79,0,*5C
1536282148.13,33863,17.75,73668.8,-1.13,-15.07,-13.11,0,*5F
1536282149.36,33864,17.69,73670.3,-1.13,-15.07,-13.07,0,*5F
1536282150.59,33865,17.69,73670.0,-1.13,-15.07,-13.07,0,*5E
1536282151.86,33866,17.75,73668.5,-1.13,-14.83,-12.93,0,*5C
1536282153.12,33867,17.75,73672.3,-1.13,-14.83,-12.93,0,*5D
1536282154.35,33868,17.75,73672.3,-1.15,-14.97,-13.07,0,*5D
1536282155.58,33869,17.75,73672.3,-1.15,-15.07,-13.01,0,*52
1536282156.78,33870,17.69,73670.3,-1.15,-15.11,-13.07,0,*5B
1536282157.98,33871,17.69,73668.3,-1.15,-15.11,-13.07,0,*5A
1536282159.17,33872,17.69,73668.3,-1.17,-15.11,-13.07,0,*5B
1536282160.37,33873,17.69,73670.5,-1.15,-15.11,-13.07,0,*58
1536282161.6,33874,17.75,73672.8,-1.15,-15.21,-13.07,0,*5C
1536282162.83,33875,17.69,73668.3,-1.15,-15.11,-13.01,0,*58
1536282164.02,33876,17.69,73670.0,-1.17,-15.11,-13.11,0,*58
1536282165.22,33877,17.69,73670.5,-1.15,-15.07,-13.07,0,*5B
1536282166.41,33878,17.75,73670.8,-1.17,-15.11,-13.07,0,*51
1536282167.67,33879,17.69,73668.0,-1.15,-14.93,-13.01,0,*5F
1536282168.92,33880,17.69,73670.0,-1.15,-14.97,-13.01,0,*5D
1536282170.16,33881,17.75,73674.5,-1.15,-14.97,-13.01,0,*5C
1536282171.39,33882,17.75,73672.8,-1.15,-15.21,-13.11,0,*52
1536282172.59,33883,17.75,73672.3,-1.17,-15.15,-13.11,0,*56
1536282173.82,33884,17.75,73670.8,-1.15,-15.07,-13.01,0,*51
1536282175.02,33885,17.75,73670.5,-1.15,-15.11,-13.07,0,*51
1536282176.22,33886,17.69,73670.0,-1.15,-15.11,-13.07,0,*52
1536282177.43,33887,17.69,73670.3,-1.15,-15.11,-13.07,0,*53
1536282178.64,33888,17.69,73668.0,-1.17,-15.01,-13.11,0,*58
1536282179.9,33889,17.69,73670.5,-1.15,-14.93,-13.01,0,*50
1536282181.15,33890,17.69,73670.3,-1.15,-14.93,-13.01,0,*58
1536282182.35,33891,17.75,73670.5,-1.15,-15.11,-13.07,0,*54
1536282183.56,33892,17.75,73670.8,-1.15,-15.11,-13.19,0,*58
1536282184.79,33893,17.69,73670.8,-1.15,-15.21,-13.11,0,*52
1536282185.99,33894,17.69,73670.8,-1.15,-15.07,-13.07,0,*56
1536282187.2,33895,17.75,73674.0,-1.15,-15.07,-13.07,0,*57
1536282188.4,33896,17.69,73670.8,-1.17,-15.29,-13.15,0,*59
1536282189.6,33897,17.69,73668.3,-1.17,-15.25,-13.23,0,*51
1536282190.8,33898,17.69,73668.5,-1.15,-15.11,-13.11,0,*5A
1536282192.0,33899,17.69,73668.0,-1.17,-15.11,-13.11,0,*59
1536282193.21,33900,17.69,73670.3,-1.15,-15.15,-13.23,0,*5F
1536282194.41,33901,17.69,73670.5,-1.17,-15.25,-13.15,0,*5A
1536282195.6,33902,17.69,73668.3,-1.17,-15.15,-13.15,0,*5A
1536282196.8,33903,17.69,73672.0,-1.17,-15.25,-13.15,0,*58
1536282198.0,33904,17.75,73670.5,-1.17,-15.11,-13.11,0,*5C
1536282199.2,33905,17.69,73670.8,-1.15,-15.11,-13.15,0,*5B
1536282200.4,33906,17.75,73674.0,-1.17,-15.25,-13.15,0,*5D
1536282201.64,33907,17.75,73672.5,-1.15,-14.97,-13.01,0,*53
1536282202.85,33908,17.69,73670.5,-1.15,-15.11,-13.07,0,*55
1536282204.05,33909,17.69,73670.0,-1.17,-15.25,-13.11,0,*56
1536282205.28,33910,17.69,73666.8,-1.15,-15.21,-13.11,0,*58
1536282206.48,33911,17.69,73670.5,-1.15,-15.07,-13.11,0,*5D
1536282207.69,33912,17.75,73672.5,-1.15,-15.07,-13.07,0,*59
1536282208.88,33913,17.75,73672.3,-1.17,-15.11,-13.11,0,*5A
1536282210.11,33914,17.75,73672.5,-1.15,-15.21,-13.11,0,*5C
1536282211.33,33915,17.69,73670.5,-1.15,-14.97,-13.07,0,*56
1536282212.53,33916,17.69,73668.3,-1.17,-15.15,-13.07,0,*5C
1536282213.74,33917,17.69,73670.5,-1.15,-15.07,-13.07,0,*5C
1536282214.95,33918,17.69,73668.5,-1.15,-15.25,-13.19,0,*5C
1536282216.15,33919,17.69,73668.5,-1.17,-15.11,-13.11,0,*50
1536282217.36,33920,17.69,73668.5,-1.15,-15.07,-13.11,0,*5F
1536282218.61,33921,17.75,73672.3,-1.15,-14.97,-13.01,0,*57
1536282219.81,33922,17.75,73674.8,-1.15,-15.07,-13.07,0,*5A
1536282221.04,33923,17.75,73672.0,-1.15,-15.01,-13.11,0,*5A
1536282222.24,33924,17.69,73668.5,-1.15,-15.11,-13.07,0,*5B
1536282223.47,33925,17.69,73670.5,-1.15,-14.97,-13.07,0,*55
1536282224.67,33926,17.75,73674.0,-1.15,-15.07,-13.07,0,*5E
1536282225.87,33927,17.69,73670.0,-1.15,-15.07,-13.07,0,*5F
1536282227.08,33928,17.69,73668.5,-1.15,-15.07,-13.07,0,*50
1536282228.28,33929,17.75,73674.3,-1.17,-15.29,-13.23,0,*59
1536282229.52,33930,17.69,73670.0,-1.15,-15.35,-13.19,0,*57
1536282230.76,33931,17.69,73672.3,-1.15,-15.21,-13.19,0,*53
1536282232.02,33932,17.69,73670.8,-1.15,-15.35,-13.33,0,*5D
1536282233.27,33933,17.75,73672.5,-1.17,-15.39,-13.29,0,*59
1536282234.49,33934,17.69,73672.0,-1.17,-15.35,-13.23,0,*58
1536282235.72,33935,17.69,73670.3,-1.15,-15.21,-13.11,0,*5F
1536282236.92,33936,17.75,73672.3,-1.17,-15.15,-13.15,0,*5D
1536282238.12,33937,17.75,73674.3,-1.17,-15.15,-13.11,0,*58
1536282239.36,33938,17.69,73668.0,-1.15,-15.39,-13.19,0,*53
1536282240.6,33939,17.69,73670.5,-1.15,-15.39,-13.23,0,*5B
1536282241.86,33940,17.75,73672.3,-1.15,-15.35,-13.33,0,*58
1536282243.06,33941,17.69,73670.5,-1.15,-15.11,-13.11,0,*5F
1536282244.32,33942,17.69,73670.3,-1.13,-15.21,-13.19,0,*51
1536282245.57,33943,17.69,73672.5,-1.13,-15.21,-13.11,0,*58
1536282246.77,33944,17.69,73668.5,-1.17,-15.25,-13.23,0,*5E
1536282248.01,33945,17.69,73670.3,-1.15,-15.35,-13.23,0,*5C
1536282249.23,33946,17.69,73672.3,-1.17,-15.29,-13.37,0,*55
1536282250.47,33947,17.75,73674.8,-1.15,-15.21,-13.19,0,*52
1536282251.71,33948,17.69,73670.0,-1.15,-15.25,-13.33,0,*51
1536282252.92,33949,17.69,73670.8,-1.15,-15.25,-13.23,0,*51
1536282254.15,33950,17.69,73668.3,-1.15,-15.21,-13.19,0,*54
1536282255.35,33951,17.69,73668.8,-1.17,-15.29,-13.23,0,*56
1536282256.56,33952,17.69,73670.0,-1.17,-15.29,-13.23,0,*55
1536282257.76,33953,17.69,73670.3,-1.15,-15.11,-13.11,0,*5C
1536282258.98,33954,17.69,73670.5,-1.15,-15.25,-13.19,0,*54
1536282260.19,33955,17.69,73670.0,-1.15,-15.07,-13.11,0,*5D
1536282261.39,33956,17.69,73672.5,-1.15,-15.11,-13.11,0,*59
1536282262.62,33957,17.69,73670.8,-1.15,-15.21,-13.11,0,*5B
1536282263.85,33958,17.75,73672.8,-1.15,-15.21,-13.19,0,*5C
1536282265.07,33959,17.69,73670.0,-1.15,-15.25,-13.23,0,*50
1536282266.28,33960,17.69,73672.3,-1.15,-15.25,-13.23,0,*5A
1536282267.53,33961,17.75,73674.5,-1.13,-15.21,-13.11,0,*58
1536282268.76,33962,17.75,73674.0,-1.13,-15.07,-13.07,0,*58
1536282269.98,33963,17.69,73672.5,-1.15,-15.11,-13.01,0,*5E
1536282271.19,33964,17.69,73672.5,-1.15,-15.07,-13.11,0,*5F
1536282272.4,33965,17.69,73672.5,-1.15,-15.11,-13.19,0,*51
1536282273.61,33966,17.69,73670.3,-1.15,-15.11,-13.19,0,*52
1536282274.88,33967,17.69,73672.3,-1.13,-15.25,-13.33,0,*5A
1536282276.14,33968,17.75,73674.5,-1.13,-15.35,-13.23,0,*55
1536282277.37,33969,17.75,73674.8,-1.13,-15.25,-13.23,0,*55
1536282278.6,33970,17.69,73670.8,-1.13,-15.11,-13.11,0,*5B
1536282279.83,33971,17.69,73672.5,-1.13,-15.11,-13.11,0,*5A
1536282281.06,33972,17.69,73672.8,-1.13,-15.11,-13.11,0,*59
1536282282.26,33973,17.69,73670.8,-1.11,-15.15,-13.07,0,*59
1536282283.52,33974,17.69,73670.3,-1.13,-15.35,-13.19,0,*51
1536282284.75,33975,17.69,73670.3,-1.11,-15.35,-13.43,0,*5D
1536282286.04,33976,17.69,73670.3,-1.13,-15.35,-13.33,0,*5B
1536282287.26,33977,17.69,73670.3,-1.13,-15.49,-13.47,0,*52
1536282288.55,33978,17.69,73674.8,-1.13,-15.39,-13.33,0,*59
1536282289.8,33979,17.69,73672.3,-1.11,-15.35,-13.33,0,*56
1536282291.02,33980,17.69,73672.3,-1.07,-15.29,-13.19,0,*52
1536282292.24,33981,17.69,73670.8,-1.11,-15.29,-13.19,0,*54
1536282293.49,33982,17.69,73672.0,-1.13,-15.21,-13.11,0,*55
1536282294.75,33983,17.69,73672.8,-1.13,-15.21,-13.19,0,*5C
1536282296.01,33984,17.69,73670.0,-1.13,-15.21,-13.19,0,*5B
1536282297.24,33985,17.69,73668.5,-1.11,-15.21,-13.19,0,*58
1536282298.44,33986,17.69,73670.0,-1.11,-15.49,-13.47,0,*5E
1536282299.69,33987,17.69,73674.3,-1.13,-15.39,-13.47,0,*5A
1536282300.94,33988,17.69,73668.3,-1.11,-15.35,-13.29,0,*53
1536282302.17,33989,17.69,73674.3,-1.11,-15.29,-13.29,0,*5F
1536282303.39,33990,17.75,73672.5,-1.11,-15.29,-13.19,0,*54
1536282304.64,33991,17.69,73670.5,-1.11,-15.35,-13.29,0,*5B
1536282305.88,33992,17.69,73670.8,-1.11,-15.21,-13.19,0,*5E
1536282307.08,33993,17.69,73672.0,-1.11,-15.15,-13.07,0,*57
1536282308.31,33994,17.69,73674.0,-1.11,-15.21,-13.19,0,*58
1536282309.57,33995,17.69,73674.5,-1.11,-15.35,-13.33,0,*54
1536282310.77,33996,17.69,73674.0,-1.11,-15.49,-13.43,0,*5B
1536282312.03,33997,17.75,73672.3,-1.11,-15.43,-13.33,0,*57
1536282313.26,33998,17.69,73668.5,-1.13,-15.49,-13.43,0,*57
1536282314.49,33999,17.69,73670.0,-1.11,-15.43,-13.43,0,*5E
1536282315.7,34000,17.69,73668.8,-1.11,-15.29,-13.19,0,*53
1536282316.96,34001,17.69,73672.3,-1.11,-15.35,-13.33,0,*57
1536282318.19,34002,17.69,73672.5,-1.11,-15.43,-13.43,0,*52
1536282319.39,34003,17.69,73670.5,-1.11,-15.49,-13.43,0,*59
1536282320.62,34004,17.69,73672.0,-1.11,-15.43,-13.47,0,*50
1536282321.83,34005,17.75,73672.0,-1.11,-15.29,-13.19,0,*56
1536282323.05,34006,17.69,73674.3,-1.11,-15.29,-13.19,0,*55
1536282324.26,34007,17.69,73674.3,-1.11,-15.29,-13.19,0,*54
1536282325.48,34008,17.69,73668.8,-1.11,-15.29,-13.19,0,*5B
1536282326.69,34009,17.69,73672.5,-1.11,-15.29,-13.19,0,*5A
1536282327.95,34010,17.69,73674.3,-1.11,-15.39,-13.29,0,*50
1536282329.18,34011,17.75,73674.0,-1.11,-15.35,-13.43,0,*51
1536282330.41,34012,17.69,73670.5,-1.07,-15.43,-13.43,0,*54
1536282331.67,34013,17.69,73672.5,-1.07,-15.43,-13.33,0,*52
1536282332.92,34014,17.69,73672.3,-1.11,-15.35,-13.29,0,*58
1536282334.18,34015,17.69,73672.8,-1.11,-15.35,-13.33,0,*52
1536282335.42,34016,17.69,73672.0,-1.11,-15.29,-13.33,0,*5C
1536282336.62,34017,17.69,73674.3,-1.11,-15.49,-13.55,0,*5B
1536282337.85,34018,17.69,73670.8,-1.11,-15.43,-13.47,0,*5D
1536282339.07,34019,17.69,73668.8,-1.11,-15.43,-13.47,0,*5C
1536282340.28,34020,17.69,73672.5,-1.07,-15.49,-13.55,0,*58
1536282341.51,34021,17.69,73672.5,-1.07,-15.43,-13.43,0,*54
1536282342.79,34022,17.69,73672.8,-1.05,-15.39,-13.37,0,*5B
1536282344.02,34023,17.69,73670.8,-1.07,-15.43,-13.43,0,*56
1536282345.25,34024,17.69,73672.0,-1.07,-15.39,-13.43,0,*5C
1536282346.45,34025,17.69,73670.5,-1.07,-15.49,-13.47,0,*5E
1536282347.68,34026,17.69,73670.3,-1.07,-15.43,-13.47,0,*57
1536282348.94,34027,17.69,73668.3,-1.07,-15.43,-13.61,0,*52
1536282350.17,34028,17.69,73668.0,-1.07,-15.43,-13.47,0,*59
1536282351.42,34029,17.69,73672.0,-1.05,-15.57,-13.65,0,*5F
1536282352.66,34030,17.69,73670.8,-1.07,-15.29,-13.29,0,*54
1536282353.87,34031,17.69,73670.5,-1.07,-15.29,-13.19,0,*56
1536282355.08,34032,17.69,73670.5,-1.07,-15.49,-13.47,0,*58
1536282356.31,34033,17.69,73674.3,-1.07,-15.39,-13.43,0,*5A
1536282357.54,34034,17.69,73672.5,-1.07,-15.43,-13.43,0,*50
1536282358.82,34035,17.69,73672.3,-1.05,-15.39,-13.29,0,*52
1536282360.03,34036,17.69,73672.0,-1.07,-15.29,-13.23,0,*58
1536282361.28,34037,17.69,73672.3,-1.05,-15.29,-13.37,0,*5E
1536282362.56,34038,17.69,73672.8,-1.05,-15.43,-13.29,0,*52
1536282363.79,34039,17.69,73672.3,-1.07,-15.39,-13.47,0,*54
1536282365.05,34040,17.69,73670.3,-1.05,-15.43,-13.51,0,*52
1536282366.29,34041,17.69,73672.5,-1.05,-15.57,-13.69,0,*5D
1536282367.53,34042,17.69,73672.8,-1.05,-15.53,-13.51,0,*51
1536282368.78,34043,17.69,73670.8,-1.05,-15.43,-13.43,0,*52
1536282370.03,34044,17.69,73674.8,-1.05,-15.29,-13.29,0,*55
1536282371.29,34045,17.69,73668.8,-1.05,-15.43,-13.51,0,*57
1536282372.52,34046,17.69,73674.0,-1.05,-15.67,-13.55,0,*56
1536282373.73,34047,17.69,73674.8,-1.03,-15.53,-13.55,0,*56
1536282374.95,34048,17.69,73670.3,-1.03,-15.57,-13.65,0,*5E
1536282376.16,34049,17.69,73672.8,-1.03,-15.67,-13.55,0,*5F
1536282377.39,34050,17.69,73670.8,-1.03,-15.53,-13.61,0,*57
1536282378.6,34051,17.69,73674.8,-1.03,-15.53,-13.55,0,*51
1536282379.83,34052,17.69,73672.8,-1.03,-15.57,-13.65,0,*55
1536282381.03,34053,17.69,73674.8,-1.03,-15.67,-13.55,0,*54
1536282382.26,34054,17.69,73670.3,-1.03,-15.71,-13.79,0,*5A
1536282383.48,34055,17.69,73670.3,-1.03,-15.75,-13.79,0,*5F
1536282384.69,34056,17.69,73670.8,-1.03,-15.53,-13.65,0,*55
1536282385.92,34057,17.69,73668.8,-1.03,-15.57,-13.55,0,*53
1536282387.15,34058,17.69,73672.5,-1.03,-15.43,-13.55,0,*59
1536282388.4,34059,17.69,73668.8,-1.05,-15.57,-13.65,0,*58
1536282389.62,34060,17.69,73668.5,-1.05,-15.71,-13.69,0,*5A
1536282390.88,34061,17.69,73672.5,-1.05,-15.57,-13.55,0,*50
1536282392.1,34062,17.69,73674.5,-1.05,-15.67,-13.69,0,*5F
1536282393.32,34063,17.69,73668.5,-1.05,-15.67,-13.69,0,*5E
1536282394.6,34064,17.69,73670.0,-1.05,-15.85,-13.83,0,*51
1536282395.83,34065,17.69,73674.8,-1.05,-15.75,-13.65,0,*57
1536282397.06,34066,17.69,73668.0,-1.05,-15.71,-13.69,0,*5C
1536282398.29,34067,17.69,73672.0,-1.03,-15.75,-13.83,0,*5B
1536282399.52,34068,17.69,73674.3,-1.03,-15.75,-13.87,0,*50
1536282400.72,34069,17.69,73674.3,-1.03,-15.71,-13.69,0,*55
1536282401.92,34070,17.69,73668.8,-1.03,-15.67,-13.65,0,*56
1536282403.15,34071,17.69,73674.3,-1.03,-15.71,-13.83,0,*58
1536282404.37,34072,17.69,73672.8,-1.03,-15.71,-13.79,0,*5E
1536282405.61,34073,17.69,73668.5,-1.03,-15.75,-13.83,0,*5E
1536282406.83,34074,17.69,73674.5,-1.03,-15.71,-13.79,0,*58
1536282408.08,34075,17.69,73672.0,-1.03,-15.89,-13.87,0,*5F
1536282409.34,34076,17.69,73670.0,-1.03,-15.85,-13.87,0,*50
1536282410.6,34077,17.69,73672.5,-1.01,-15.67,-13.61,0,*57
1536282411.82,34078,17.69,73674.3,-1.03,-15.57,-13.65,0,*5D
1536282413.05,34079,17.69,73672.0,-1.03,-15.57,-13.65,0,*5C
1536282414.27,34080,17.69,73674.3,-1.03,-15.57,-13.69,0,*56
1536282415.5,34081,17.69,73668.8,-1.01,-15.63,-13.65,0,*5E
1536282416.73,34082,17.69,73674.5,-1.03,-15.71,-13.79,0,*51
1536282417.96,34083,17.69,73674.5,-1.03,-15.75,-13.83,0,*51
1536282419.21,34084,17.69,73670.5,-1.01,-15.71,-13.79,0,*55
1536282420.44,34085,17.69,73674.0,-1.01,-15.63,-13.65,0,*5A
1536282421.66,34086,17.69,73674.3,-1.03,-15.67,-13.79,0,*52
1536282422.91,34087,17.69,73668.8,-1.03,-15.85,-13.87,0,*5E
1536282424.14,34088,17.69,73668.8,-1.03,-15.75,-13.83,0,*5A
1536282425.37,34089,17.69,73670.3,-1.01,-15.67,-13.73,0,*55
1536282426.6,34090,17.69,73674.8,-1.03,-15.71,-13.83,0,*57
1536282427.88,34091,17.69,73670.3,-1.01,-15.81,-13.83,0,*5B
1536282429.15,34092,17.69,73672.0,-1.01,-15.81,-13.79,0,*5D
1536282430.4,34093,17.69,73672.8,-1.01,-15.71,-13.83,0,*56
1536282431.68,34094,17.69,73672.0,-1.01,-15.85,-13.83,0,*5A
1536282432.94,34095,17.69,73672.5,-1.03,-15.85,-13.83,0,*59
1536282434.19,34096,17.69,73672.0,-1.03,-15.85,-13.87,0,*5E
1536282435.45,34097,17.69,73670.3,-1.01,-15.71,-13.83,0,*52
1536282436.7,34098,17.69,73674.5,-1.03,-15.85,-13.87,0,*50
1536282437.89,34099,17.69,73674.3,-1.03,-15.99,-13.93,0,*59
1536282439.17,34100,17.69,73672.0,-1.01,-15.81,-13.79,0,*57
1536282440.42,34101,17.69,73670.5,-1.01,-15.85,-13.93,0,*56
1536282441.7,34102,17.69,73674.3,-1.01,-15.81,-13.83,0,*50
1536282442.92,34103,17.75,73672.8,-1.01,-15.95,-13.93,0,*55
1536282444.15,34104,17.69,73672.8,-1.01,-15.95,-13.93,0,*52
1536282445.41,34105,17.69,73670.3,-1.01,-15.95,-14.05,0,*5B
1536282446.66,34106,17.69,73674.0,-1.01,-15.85,-13.93,0,*51
1536282447.9,34107,17.69,73672.3,-1.03,-16.03,-13.97,0,*5B
1536282449.16,34108,17.69,73672.3,-1.03,-15.85,-13.97,0,*59
1536282450.45,34109,17.69,73672.3,-1.01,-16.09,-14.05,0,*51
1536282451.68,34110,17.69,73670.5,-1.03,-16.13,-14.15,0,*51
1536282452.89,34111,17.69,73674.3,-1.03,-16.03,-14.11,0,*55
1536282454.09,34112,17.69,73672.8,-1.03,-16.03,-14.15,0,*52
1536282455.35,34113,17.69,73670.0,-1.01,-15.99,-14.05,0,*50
1536282456.58,34114,17.69,73672.8,-1.03,-16.13,-14.11,0,*51
1536282457.81,34115,17.69,73672.0,-1.03,-16.03,-14.05,0,*54
1536282459.04,34116,17.69,73674.3,-1.03,-15.99,-14.01,0,*53
1536282460.26,34117,17.69,73672.0,-1.03,-15.99,-14.01,0,*52
1536282461.5,34118,17.69,73672.8,-1.03,-16.03,-14.01,0,*5D
1536282462.7,34119,17.69,73674.8,-1.03,-16.03,-14.11,0,*5D
1536282463.91,34120,17.69,73674.8,-1.03,-16.03,-14.15,0,*53
1536282465.11,34121,17.69,73672.8,-1.03,-16.03,-14.11,0,*56
1536282466.34,34122,17.69,73670.8,-1.03,-16.13,-14.11,0,*54
1536282467.54,34123,17.69,73672.8,-1.03,-16.03,-14.11,0,*54
1536282468.74,34124,17.69,73670.5,-1.03,-15.99,-14.11,0,*53
1536282469.97,34125,17.69,73672.0,-1.03,-15.99,-14.01,0,*53
1536282471.25,34126,17.69,73674.5,-1.01,-15.85,-13.97,0,*57
1536282472.52,34127,17.69,73670.3,-1.03,-15.85,-13.97,0,*54
1536282473.74,34128,17.69,73674.5,-1.01,-15.99,-14.11,0,*5D
1536282475.0,34129,17.69,73668.8,-1.03,-16.13,-14.01,0,*5E
1536282476.2,34130,17.69,73672.5,-1.03,-15.99,-14.11,0,*56
1536282477.4,34131,17.69,73668.0,-1.03,-16.03,-14.11,0,*57
1536282478.69,34132,17.69,73668.5,-1.01,-16.09,-14.05,0,*59
1536282479.92,34133,17.69,73670.5,-1.03,-16.13,-14.15,0,*50
1536282481.18,34134,17.69,73672.0,-1.01,-16.09,-14.11,0,*5A
1536282482.43,34135,17.69,73674.8,-1.01,-15.99,-14.05,0,*54
1536282483.69,34136,17.69,73668.8,-1.01,-15.95,-14.05,0,*5B
1536282484.95,34137,17.69,73672.8,-1.01,-15.95,-14.05,0,*5A
1536282486.19,34138,17.69,73674.0,-1.03,-16.09,-14.23,0,*55
1536282487.42,34139,17.69,73672.3,-1.03,-16.17,-14.29,0,*51
1536282488.65,34140,17.69,73674.5,-1.03,-16.27,-14.37,0,*53
1536282489.92,34141,17.69,73672.3,-1.01,-16.13,-14.23,0,*52
1536282491.15,34142,17.69,73674.0,-1.03,-16.13,-14.29,0,*59
1536282492.38,34143,17.69,73674.0,-1.01,-15.99,-14.11,0,*50
1536282493.61,34144,17.69,73672.3,-1.03,-16.13,-14.11,0,*54